Weather in Kaz

Russia / Kemerovo Oblast     53°06′37″N   87°33′01″E
temp.,
°C
wind,
m/s
gust,
m/s
humid.,
%
clouds,
%
prec.,
mm/h
press.,
hPa
HPBL,
m
9 may, sun
sun901:00+11ssw2125760 0.0 1017356
04:00+8sse226945 0.0 101770
07:00+9wsw21068100 0.1 1018466
10:00+12wsw385935 0.1 1016712
13:00+16wnw4105191 0.3 10151806
16:00+14n475195 0.3 10141170
19:00+12n45497 0.3 10161074
22:00+5nne25675 0.0 1018140
10 may, mon
mon1001:00+2nne21800 0.0 101917
04:00+1ene12905 0.0 102035
07:00+4e24800 0.0 1020205
10:00+10e47410 0.0 10191152
13:00+14e69290 0.0 10171720
16:00+15e69294 0.0 10151828
19:00+13ene5942100 0.0 10141515
22:00+6ene41164100 0.0 1014374
11 may, tue
tue1101:00+3ene2475100 0.0 1013128
04:00+2e1279100 0.0 101247
07:00+5e1267100 0.0 1012115
10:00+12e124326 0.0 1010801
13:00+18ne013425 0.0 10091798
16:00+16s2242100 0.0 10091284
19:00+14sse2557100 0.0 1011264
22:00+10ese2272100 0.1 101329
12 may, wed
wed1201:00+8se1185100 0.2 101313
04:00+7se1187100 0.0 101412
07:00+8se0186100 0.4 101449
10:00+8nw1187100 1.4 1015210
13:00+11nnw1174100 2.1 1015601
16:00+15ssw015395 0.5 10131393
19:00+13w017466 1.9 101473
22:00+8se1190100 0.9 101617
13 may, thu
thu1301:00+8e0093100 1.4 101713
04:00+8s1195100 0.4 101717
07:00+8ssw119699 0.4 1018104
10:00+8ssw1295100 1.0 1018246
13:00+9ssw238692 2.2 1018475
16:00+11sw228099 0.6 1018692
19:00+11wsw238194 1.4 1017543
22:00+6s229687 0.5 101829